Weather History for Benina, Libya

Change the Weather History Date:

Wednesday, November 21, 2012

  Actual Average Record
Temperature  
Mean Temperature 64 °F -  
Max Temperature 74 °F 64 °F 84 °F (1999)
Min Temperature 54 °F 53 °F 50 °F (2007)
Degree Days  
Heating Degree Days 1    
Growing Degree Days 14 (Base 50)    
Moisture  
Dew Point 54 °F    
Average Humidity 67    
Maximum Humidity 88    
Minimum Humidity 36    
Precipitation  
Precipitation 0.51 in - - ()
Sea Level Pressure  
Sea Level Pressure 30.01 in    
Wind  
Wind Speed 7 mph ()    
Max Wind Speed 17 mph    
Max Gust Speed -    
Visibility 6.1 miles    
Events Thunderstorm    
Averages and records for this station are not official NWS values.
T = Trace of Precipitation, MM = Missing Value Source: Averaged Metar Reports

Daily Weather History Graph

Daily Weather History Graph

Search for Another Location

Airport:

Trip Planner

Search our weather history database for the weather conditions in past years. The results will help you decide how hot, cold, wet, or windy it might be!

Date:

Astronomy

Nov. 21, 2012 Rise Set
Actual Time 6:13 AM CET 4:36 PM CET
Civil Twilight 5:47 AM CET 5:02 PM CET
Nautical Twilight 5:17 AM CET 5:32 PM CET
Astronomical Twilight 4:47 AM CET 6:01 PM CET
Moon 12:22 PM CET (11/21) No Moon Set
Length of Visible Light 11h 15m
Length of Day
10h 22m
First Quarter, 59% of the Moon is Illuminated
Nov 21
First Quarter
Nov 28
Full
Dec 6
Last Quarter
Dec 13
New
Dec 20
First Quarter

Hourly Weather History & Observations

Time (CET) Temp. Dew Point Humidity Pressure Visibility Wind Dir Wind Speed Gust Speed Precip Events Conditions
12:15 AM 60.8 °F 55.4 °F 82% 30.01 in - NNE 8.1 mph - N/A   Clear
12:45 AM 60.8 °F 55.4 °F 82% 30.01 in 6.2 mi NNE 9.2 mph - N/A   Partly Cloudy
1:00 AM 61 °F 55 °F 75% 30.00 in 6 mi NNE 9.2 mph - -   Scattered Clouds
1:25 AM 57.2 °F 53.6 °F 88% 30.01 in 6.2 mi NNE 5.8 mph - N/A   Partly Cloudy
2:00 AM 59.0 °F 53.6 °F 82% 29.98 in 6.2 mi NNE 5.8 mph - N/A   Partly Cloudy
2:15 AM 59.0 °F 53.6 °F 82% 29.98 in 6.2 mi NNE 5.8 mph - N/A   Partly Cloudy
2:25 AM 57.2 °F 51.8 °F 82% 29.98 in 6.2 mi ENE 5.8 mph - N/A   Partly Cloudy
2:45 AM 55.4 °F 51.8 °F 88% 29.98 in 6.2 mi NE 6.9 mph - N/A   Partly Cloudy
4:00 AM 57 °F 52 °F 79% 30.00 in 6 mi Calm Calm - -   Scattered Clouds
4:30 AM 57.2 °F 51.8 °F 82% 29.98 in 6.2 mi NE 5.8 mph - N/A   Partly Cloudy
4:45 AM 57.2 °F 53.6 °F 88% 30.01 in 6.2 mi Calm Calm - N/A   Partly Cloudy
5:15 AM 55.4 °F 50.0 °F 82% 30.01 in 6.2 mi Calm Calm - N/A   Partly Cloudy
5:45 AM 55.4 °F 32.0 °F 41% 30.01 in 6.2 mi Calm Calm - N/A   Partly Cloudy
6:15 AM 55.4 °F 51.8 °F 88% 30.01 in 6.2 mi ENE 5.8 mph - N/A   Scattered Clouds
6:45 AM 57.2 °F 53.6 °F 88% 30.01 in 6.2 mi ENE 8.1 mph - N/A   Scattered Clouds
7:00 AM 57 °F 53 °F 82% 30.03 in 6 mi ENE 8.1 mph - -   Partly Cloudy
7:15 AM 60.8 °F 57.2 °F 88% 30.04 in 6.2 mi ENE 5.8 mph - N/A   Scattered Clouds
7:45 AM 66.2 °F 57.2 °F 73% 30.04 in 6.2 mi ENE 5.8 mph - N/A   Scattered Clouds
7:50 AM 68.0 °F 55.4 °F 64% 30.01 in 6.2 mi NW 5.8 mph - N/A   Mostly Cloudy
8:20 AM 68.0 °F 57.2 °F 68% 30.04 in 6.2 mi NE 5.8 mph - N/A   Scattered Clouds
8:50 AM 69.8 °F 57.2 °F 64% 30.04 in 6.2 mi North 5.8 mph - N/A   Scattered Clouds
9:20 AM 71.6 °F 57.2 °F 60% 30.04 in 6.2 mi NNW 11.5 mph - N/A   Scattered Clouds
9:50 AM 71.6 °F 55.4 °F 57% 30.04 in 6.2 mi WNW 11.5 mph - N/A   Scattered Clouds
10:00 AM 71 °F 55 °F 47% 30.04 in 6 mi WNW 11.5 mph - -   Partly Cloudy
10:20 AM 71.6 °F 53.6 °F 53% 30.04 in 6.2 mi NW 11.5 mph - N/A   Scattered Clouds
10:50 AM 73.4 °F 53.6 °F 50% 30.04 in 6.2 mi North 11.5 mph - N/A   Mostly Cloudy
11:20 AM 71.6 °F 55.4 °F 57% 30.01 in 6.2 mi North 17.3 mph - N/A   Mostly Cloudy
11:50 AM 73.4 °F 53.6 °F 50% 30.01 in 6.2 mi North 17.3 mph - N/A   Mostly Cloudy
12:20 PM 73.4 °F 51.8 °F 47% 30.01 in 6.2 mi North 17.3 mph - N/A   Mostly Cloudy
12:50 PM 75.2 °F 51.8 °F 44% 30.01 in 6.2 mi NW 11.5 mph - N/A   Scattered Clouds
1:00 PM 74 °F 53 °F 36% 29.99 in 6 mi NW 11.5 mph - -   Partly Cloudy
1:20 PM 71.6 °F 53.6 °F 53% 30.01 in 6.2 mi NNW 17.3 mph - N/A   Scattered Clouds
1:50 PM 71.6 °F 55.4 °F 57% 29.98 in 6.2 mi NW 11.5 mph - N/A   Scattered Clouds
2:20 PM 73.4 °F 53.6 °F 50% 29.98 in 6.2 mi NNW 17.3 mph - N/A   Mostly Cloudy
2:50 PM 71.6 °F 55.4 °F 57% 30.01 in 6.2 mi NNW 17.3 mph - N/A   Mostly Cloudy
3:50 PM 69.8 °F 55.4 °F 60% 30.01 in 6.2 mi WNW 11.5 mph - N/A   Mostly Cloudy
4:00 PM 70 °F 55 °F 49% 29.99 in 6 mi NNW 13.8 mph - -   Partly Cloudy
4:20 PM 69.8 °F 55.4 °F 60% 30.01 in 6.2 mi WNW 13.8 mph - N/A   Mostly Cloudy
4:50 PM 68.0 °F 55.4 °F 64% 30.01 in 6.2 mi West 9.2 mph - N/A   Mostly Cloudy
5:20 PM 68.0 °F 55.4 °F 64% 30.01 in 6.2 mi West 11.5 mph - N/A   Mostly Cloudy
7:00 PM 66 °F 54 °F 56% 30.01 in 6 mi Calm Calm - -   Partly Cloudy
10:00 PM 61 °F 56 °F 77% 30.05 in 4 mi ESE 5.8 mph - - Thunderstorm Light Thunderstorm